| time (UTC) | temp C | wind direction | speed KPH | gust KPH | rain 1hr cm | rain 24hr cm | rain mn cm | humidity % | barometer mb |
| 20260503211801 | 17 | 338 | 3.2 | 6.4 | 0.00 | 0.00 | 0.00 | 57 | 1019.6 |
| 20260503211301 | 17 | 162 | 3.2 | 9.7 | 0.00 | 0.00 | 0.00 | 57 | 1019.5 |
| 20260503210300 | 17 | 106 | 3.2 | 9.7 | 0.00 | 0.00 | 0.00 | 56 | 1019.7 |
| 20260503205759 | 17 | 122 | 3.2 | 9.7 | 0.00 | 0.00 | 0.00 | 56 | 1019.5 |
| 20260503205258 | 17 | 192 | 4.8 | 6.4 | 0.00 | 0.00 | 0.00 | 55 | 1019.5 |
| 20260503204758 | 17 | 122 | 1.6 | 6.4 | 0.00 | 0.00 | 0.00 | 55 | 1019.3 |
| 20260503204257 | 17 | 129 | 3.2 | 6.4 | 0.00 | 0.00 | 0.00 | 54 | 1019.6 |
| 20260503203756 | 17 | 226 | 3.2 | 6.4 | 0.00 | 0.00 | 0.00 | 54 | 1019.2 |
| 20260503203256 | 17 | 103 | 4.8 | 8.0 | 0.00 | 0.00 | 0.00 | 54 | 1019.4 |
| 20260503202755 | 17 | 128 | 3.2 | 8.0 | 0.00 | 0.00 | 0.00 | 54 | 1019.6 |
| 20260503202255 | 16 | 89 | 4.8 | 9.7 | 0.00 | 0.00 | 0.00 | 57 | 1019.7 |
| 20260503201754 | 17 | 86 | 6.4 | 9.7 | 0.00 | 0.00 | 0.00 | 55 | 1019.7 |
| 20260503201253 | 17 | 110 | 4.8 | 8.0 | 0.00 | 0.00 | 0.00 | 52 | 1019.6 |
| 20260503200752 | 17 | 75 | 3.2 | 8.0 | 0.00 | 0.00 | 0.00 | 50 | 1019.5 |
| 20260503200252 | 17 | 87 | 1.6 | 8.0 | 0.00 | 0.00 | 0.00 | 50 | 1019.3 |
| 20260503194249 | 17 | 240 | 3.2 | 8.0 | 0.00 | 0.00 | 0.00 | 54 | 1019.4 |
| 20260503193248 | 17 | 80 | 0.0 | 6.4 | 0.00 | 0.00 | 0.00 | 50 | 1019.2 |
| 20260503192748 | 17 | 115 | 4.8 | 6.4 | 0.00 | 0.00 | 0.00 | 52 | 1019.4 |
| 20260503192247 | 17 | 91 | 3.2 | 8.0 | 0.00 | 0.00 | 0.00 | 55 | 1019.4 |
| 20260503191747 | 17 | 105 | 4.8 | 8.0 | 0.00 | 0.00 | 0.00 | 58 | 1019.3 |
| 20260503191247 | 18 | 97 | 4.8 | 8.0 | 0.00 | 0.00 | 0.00 | 57 | 1019.1 |
| 20260503190746 | 17 | 100 | 1.6 | 6.4 | 0.00 | 0.00 | 0.00 | 57 | 1019.2 |
| 20260503190244 | 18 | 85 | 4.8 | 6.4 | 0.00 | 0.00 | 0.00 | 56 | 1019.1 |
| 20260503185243 | 18 | 75 | 3.2 | 6.4 | 0.00 | 0.00 | 0.00 | 54 | 1019.1 |
| 20260503184743 | 18 | 96 | 3.2 | 4.8 | 0.00 | 0.00 | 0.00 | 54 | 1019.2 |
| 20260503184243 | 18 | 92 | 4.8 | 4.8 | 0.00 | 0.00 | 0.00 | 53 | 1019.2 |
| 20260503183742 | 18 | 94 | 1.6 | 4.8 | 0.00 | 0.00 | 0.00 | 52 | 1019.2 |
| 20260503183241 | 18 | 103 | 0.0 | 1.6 | 0.00 | 0.00 | 0.00 | 52 | 1019.1 |
| 20260503182741 | 17 | 129 | 0.0 | 3.2 | 0.00 | 0.00 | 0.00 | 54 | 1019.0 |
| 20260503182240 | 18 | 231 | 0.0 | 3.2 | 0.00 | 0.00 | 0.00 | 54 | 1019.1 |
| 20260503181740 | 18 | 242 | 0.0 | 3.2 | 0.00 | 0.00 | 0.00 | 56 | 1019.2 |
| 20260503181238 | 18 | 313 | 3.2 | 3.2 | 0.00 | 0.00 | 0.00 | 54 | 1019.1 |
| 20260503180739 | 18 | 224 | 0.0 | 6.4 | 0.00 | 0.00 | 0.00 | 55 | 1019.0 |
| 20260503180237 | 18 | 238 | 3.2 | 6.4 | 0.00 | 0.00 | 0.00 | 56 | 1018.8 |
| 20260503175737 | 18 | 260 | 4.8 | 6.4 | 0.00 | 0.00 | 0.00 | 55 | 1019.0 |
| 20260503175236 | 18 | 256 | 4.8 | 8.0 | 0.00 | 0.00 | 0.00 | 55 | 1018.8 |
| 20260503174735 | 18 | 235 | 4.8 | 9.7 | 0.00 | 0.00 | 0.00 | 55 | 1018.8 |
| 20260503174235 | 18 | 248 | 6.4 | 9.7 | 0.00 | 0.00 | 0.00 | 55 | 1019.1 |
| 20260503173734 | 19 | 277 | 3.2 | 8.0 | 0.00 | 0.00 | 0.00 | 55 | 1019.0 |
| 20260503173233 | 19 | 256 | 4.8 | 8.0 | 0.00 | 0.00 | 0.00 | 55 | 1019.0 |
| 20260503172232 | 19 | 249 | 4.8 | 6.4 | 0.00 | 0.00 | 0.00 | 54 | 1019.1 |
| 20260503171732 | 19 | 238 | 4.8 | 9.7 | 0.00 | 0.00 | 0.00 | 54 | 1019.1 |
| 20260503171232 | 19 | 243 | 6.4 | 9.7 | 0.00 | 0.00 | 0.00 | 54 | 1018.8 |
| 20260503170731 | 20 | 224 | 3.2 | 6.4 | 0.00 | 0.00 | 0.00 | 53 | 1019.0 |
| 20260503170230 | 20 | 228 | 3.2 | 6.4 | 0.00 | 0.00 | 0.00 | 53 | 1019.0 |
| 20260503150716 | 23 | 88 | 3.2 | 9.7 | 0.00 | 0.00 | 0.00 | 36 | 1019.5 |
| 20260503130702 | 23 | 94 | 8.0 | 11.3 | 0.00 | 0.00 | 0.00 | 34 | 1020.4 |
| 20260503130201 | 23 | 92 | 6.4 | 11.3 | 0.00 | 0.00 | 0.00 | 32 | 1020.2 |
| 20260503120154 | 23 | 114 | 8.0 | 14.5 | 0.00 | 0.00 | 0.00 | 33 | 1020.6 |
| 20260503110648 | 25 | 81 | 4.8 | 11.3 | 0.00 | 0.00 | 0.00 | 31 | 1021.0 |
| 20260503110147 | 24 | 309 | 1.6 | 6.4 | 0.00 | 0.00 | 0.00 | 33 | 1021.0 |
| 20260503090132 | 22 | 333 | 3.2 | 4.8 | 0.00 | 0.00 | 0.00 | 35 | 1021.8 |
| 20260503081626 | 20 | 65 | 1.6 | 4.8 | 0.00 | 0.00 | 0.00 | 46 | 1022.0 |
| 20260503081126 | 20 | 44 | 3.2 | 4.8 | 0.00 | 0.00 | 0.00 | 46 | 1021.9 |
| 20260503080625 | 19 | 108 | 3.2 | 8.0 | 0.00 | 0.00 | 0.00 | 48 | 1022.0 |
| 20260503080124 | 18 | 93 | 1.6 | 8.0 | 0.00 | 0.00 | 0.00 | 49 | 1021.9 |
| 20260503072119 | 17 | 102 | 4.8 | 6.4 | 0.00 | 0.00 | 0.00 | 48 | 1022.0 |
| 20260503071619 | 17 | 148 | 3.2 | 8.0 | 0.00 | 0.00 | 0.00 | 48 | 1022.1 |
| 20260503071119 | 16 | 245 | 3.2 | 8.0 | 0.00 | 0.00 | 0.00 | 49 | 1021.8 |
| 20260503070618 | 16 | 123 | 3.2 | 9.7 | 0.00 | 0.00 | 0.00 | 50 | 1021.9 |
| 20260503070118 | 15 | 107 | 6.4 | 9.7 | 0.00 | 0.00 | 0.00 | 51 | 1022.0 |
| 20260503060109 | 13 | 82 | 6.4 | 12.9 | 0.00 | 0.00 | 0.00 | 54 | 1021.5 |
| 20260503055108 | 13 | 87 | 8.0 | 12.9 | 0.00 | 0.00 | 0.00 | 53 | 1021.5 |
| 20260503054608 | 12 | 98 | 6.4 | 11.3 | 0.00 | 0.00 | 0.00 | 56 | 1021.7 |
| 20260503054108 | 13 | 82 | 6.4 | 12.9 | 0.00 | 0.00 | 0.00 | 54 | 1021.6 |
| 20260503053607 | 13 | 340 | 0.0 | 12.9 | 0.00 | 0.00 | 0.00 | 53 | 1021.6 |
| 20260503053107 | 12 | 87 | 6.4 | 14.5 | 0.00 | 0.00 | 0.00 | 57 | 1021.7 |
| 20260503052606 | 12 | 83 | 6.4 | 14.5 | 0.00 | 0.00 | 0.00 | 54 | 1021.6 |
| 20260503052105 | 11 | 96 | 6.4 | 14.5 | 0.00 | 0.00 | 0.00 | 59 | 1021.8 |
| 20260503051604 | 11 | 93 | 9.7 | 12.9 | 0.00 | 0.00 | 0.00 | 59 | 1021.7 |
| 20260503051104 | 11 | 84 | 8.0 | 12.9 | 0.00 | 0.00 | 0.00 | 60 | 1021.6 |
| 20260503050604 | 11 | 97 | 8.0 | 12.9 | 0.00 | 0.00 | 0.00 | 60 | 1021.5 |
| 20260503045602 | 11 | 85 | 9.7 | 14.5 | 0.00 | 0.00 | 0.00 | 61 | 1021.6 |
| 20260503044601 | 11 | 86 | 6.4 | 14.5 | 0.00 | 0.00 | 0.00 | 60 | 1021.3 |
| 20260503044101 | 11 | 92 | 9.7 | 14.5 | 0.00 | 0.00 | 0.00 | 57 | 1021.3 |
| 20260503043600 | 12 | 97 | 9.7 | 12.9 | 0.00 | 0.00 | 0.00 | 55 | 1021.3 |
| 20260503043059 | 11 | 96 | 11.3 | 12.9 | 0.00 | 0.00 | 0.00 | 56 | 1021.3 |
| 20260503042559 | 11 | 87 | 6.4 | 12.9 | 0.00 | 0.00 | 0.00 | 58 | 1021.2 |
| 20260503042057 | 11 | 92 | 8.0 | 12.9 | 0.00 | 0.00 | 0.00 | 60 | 1021.4 |
| 20260503041533 | 11 | 78 | 6.4 | 12.9 | 0.00 | 0.00 | 0.00 | 57 | 1021.5 |
| 20260503041033 | 11 | 97 | 6.4 | 14.5 | 0.00 | 0.00 | 0.00 | 57 | 1021.3 |
| 20260503040532 | 11 | 84 | 12.9 | 14.5 | 0.00 | 0.00 | 0.00 | 59 | 1021.2 |
| 20260503040032 | 11 | 95 | 8.0 | 11.3 | 0.00 | 0.00 | 0.00 | 59 | 1021.2 |
| 20260503035532 | 10 | 91 | 6.4 | 9.7 | 0.00 | 0.00 | 0.00 | 58 | 1021.2 |
| 20260503035031 | 11 | 88 | 6.4 | 12.9 | 0.00 | 0.00 | 0.00 | 58 | 1021.3 |
| 20260503034531 | 11 | 89 | 9.7 | 14.5 | 0.00 | 0.00 | 0.00 | 55 | 1021.3 |
| 20260503034030 | 11 | 100 | 11.3 | 14.5 | 0.00 | 0.00 | 0.00 | 58 | 1021.3 |
| 20260503033029 | 11 | 80 | 9.7 | 12.9 | 0.00 | 0.00 | 0.00 | 59 | 1021.4 |
| 20260503032528 | 11 | 96 | 6.4 | 11.3 | 0.00 | 0.00 | 0.00 | 58 | 1021.4 |
| 20260503031528 | 12 | 70 | 3.2 | 14.5 | 0.00 | 0.00 | 0.00 | 55 | 1021.5 |
| 20260503031027 | 11 | 82 | 6.4 | 14.5 | 0.00 | 0.00 | 0.00 | 57 | 1021.6 |
| 20260503030026 | 11 | 98 | 6.4 | 12.9 | 0.00 | 0.00 | 0.00 | 55 | 1021.7 |
| 20260503025525 | 11 | 114 | 6.4 | 17.7 | 0.00 | 0.00 | 0.00 | 59 | 1021.5 |
| 20260503025024 | 10 | 88 | 8.0 | 17.7 | 0.00 | 0.00 | 0.00 | 63 | 1021.5 |
| 20260503024524 | 10 | 79 | 11.3 | 17.7 | 0.00 | 0.00 | 0.00 | 63 | 1021.6 |
| 20260503024024 | 10 | 91 | 11.3 | 17.7 | 0.00 | 0.00 | 0.00 | 62 | 1021.6 |
| 20260503023500 | 11 | 89 | 14.5 | 17.7 | 0.00 | 0.00 | 0.00 | 61 | 1021.5 |
| 20260503023000 | 11 | 86 | 12.9 | 17.7 | 0.00 | 0.00 | 0.00 | 61 | 1021.6 |
| 20260503022459 | 11 | 93 | 9.7 | 17.7 | 0.00 | 0.00 | 0.00 | 61 | 1021.5 |
| 20260503021959 | 11 | 85 | 9.7 | 14.5 | 0.00 | 0.00 | 0.00 | 60 | 1021.5 |
| 20260503021458 | 11 | 96 | 12.9 | 14.5 | 0.00 | 0.00 | 0.00 | 59 | 1021.5 |
| 20260503015957 | 11 | 104 | 9.7 | 14.5 | 0.00 | 0.00 | 0.00 | 59 | 1021.5 |
| 20260503015456 | 11 | 88 | 11.3 | 14.5 | 0.00 | 0.00 | 0.00 | 61 | 1021.4 |
| 20260503014956 | 12 | 105 | 9.7 | 12.9 | 0.00 | 0.00 | 0.00 | 58 | 1021.6 |
| 20260503014454 | 12 | 120 | 6.4 | 11.3 | 0.00 | 0.00 | 0.00 | 55 | 1021.6 |
| 20260503013454 | 11 | 84 | 8.0 | 12.9 | 0.00 | 0.00 | 0.00 | 58 | 1021.6 |
| 20260503012954 | 11 | 82 | 11.3 | 12.9 | 0.00 | 0.00 | 0.00 | 64 | 1021.8 |
| 20260503011952 | 12 | 138 | 4.8 | 8.0 | 0.00 | 0.00 | 0.00 | 56 | 1021.6 |
| 20260503011451 | 12 | 107 | 4.8 | 8.0 | 0.00 | 0.00 | 0.00 | 58 | 1021.9 |
| 20260503010952 | 12 | 27 | 1.6 | 6.4 | 0.00 | 0.00 | 0.00 | 54 | 1021.5 |
| 20260503010451 | 12 | 92 | 4.8 | 8.0 | 0.00 | 0.00 | 0.00 | 57 | 1021.8 |
| 20260503005950 | 11 | 122 | 1.6 | 8.0 | 0.00 | 0.00 | 0.00 | 61 | 1021.8 |
| 20260503005450 | 11 | 105 | 3.2 | 8.0 | 0.00 | 0.00 | 0.00 | 62 | 1021.8 |
| 20260503004949 | 11 | 302 | 0.0 | 9.7 | 0.00 | 0.00 | 0.00 | 60 | 1021.9 |
| 20260503004448 | 10 | 109 | 4.8 | 9.7 | 0.00 | 0.00 | 0.00 | 65 | 1022.2 |
| 20260503003948 | 10 | 103 | 8.0 | 8.0 | 0.00 | 0.00 | 0.00 | 68 | 1022.2 |
| 20260503003447 | 10 | 110 | 4.8 | 8.0 | 0.00 | 0.00 | 0.00 | 66 | 1022.1 |
| 20260503002947 | 11 | 113 | 6.4 | 9.7 | 0.00 | 0.00 | 0.00 | 66 | 1022.1 |
| 20260503002446 | 10 | 111 | 4.8 | 9.7 | 0.00 | 0.00 | 0.00 | 68 | 1022.0 |
| 20260503001446 | 11 | 111 | 3.2 | 9.7 | 0.00 | 0.00 | 0.00 | 65 | 1022.3 |
| 20260503000945 | 11 | 101 | 8.0 | 9.7 | 0.00 | 0.00 | 0.00 | 64 | 1022.4 |
| 20260503000444 | 11 | 108 | 8.0 | 9.7 | 0.00 | 0.00 | 0.00 | 64 | 1022.3 |
| 20260502235944 | 11 | 91 | 6.4 | 11.3 | 0.00 | 0.00 | 0.00 | 64 | 1022.5 |
| 20260502235443 | 11 | 104 | 4.8 | 11.3 | 0.00 | 0.00 | 0.00 | 63 | 1022.5 |
| 20260502234942 | 11 | 87 | 9.7 | 12.9 | 0.00 | 0.00 | 0.00 | 64 | 1022.5 |
| 20260502234442 | 11 | 80 | 8.0 | 12.9 | 0.00 | 0.00 | 0.00 | 63 | 1022.6 |
| 20260502233942 | 11 | 98 | 6.4 | 12.9 | 0.00 | 0.00 | 0.00 | 65 | 1022.6 |
| 20260502233441 | 11 | 99 | 8.0 | 14.5 | 0.00 | 0.00 | 0.00 | 64 | 1022.7 |
| 20260502232941 | 11 | 88 | 9.7 | 14.5 | 0.00 | 0.00 | 0.00 | 64 | 1022.7 |
| 20260502232440 | 11 | 93 | 8.0 | 11.3 | 0.00 | 0.00 | 0.00 | 64 | 1023.0 |
| 20260502231939 | 12 | 92 | 6.4 | 12.9 | 0.00 | 0.00 | 0.00 | 60 | 1022.8 |
| 20260502231439 | 13 | 91 | 8.0 | 12.9 | 0.00 | 0.00 | 0.00 | 57 | 1022.8 |
| 20260502230938 | 12 | 59 | 6.4 | 9.7 | 0.00 | 0.00 | 0.00 | 59 | 1022.8 |
| 20260502225937 | 13 | 105 | 6.4 | 8.0 | 0.00 | 0.00 | 0.00 | 56 | 1023.0 |
| 20260502224936 | 13 | 69 | 1.6 | 9.7 | 0.00 | 0.00 | 0.00 | 55 | 1023.2 |
| 20260502224435 | 13 | 102 | 6.4 | 9.7 | 0.00 | 0.00 | 0.00 | 54 | 1023.2 |
| 20260502223935 | 13 | 92 | 6.4 | 9.7 | 0.00 | 0.00 | 0.00 | 54 | 1023.0 |
| 20260502223434 | 13 | 97 | 6.4 | 11.3 | 0.00 | 0.00 | 0.00 | 54 | 1023.2 |
| 20260502222434 | 13 | 98 | 4.8 | 9.7 | 0.00 | 0.00 | 0.00 | 53 | 1023.3 |
| 20260502221933 | 13 | 87 | 4.8 | 8.0 | 0.00 | 0.00 | 0.00 | 54 | 1023.2 |
| 20260502221432 | 13 | 106 | 3.2 | 8.0 | 0.00 | 0.00 | 0.00 | 54 | 1023.1 |
| 20260502220932 | 13 | 71 | 4.8 | 9.7 | 0.00 | 0.00 | 0.00 | 54 | 1023.4 |
| 20260502220431 | 13 | 95 | 6.4 | 9.7 | 0.00 | 0.00 | 0.00 | 54 | 1023.1 |
| 20260502215931 | 13 | 86 | 8.0 | 9.7 | 0.00 | 0.00 | 0.00 | 54 | 1023.0 |
| 20260502215430 | 13 | 93 | 6.4 | 11.3 | 0.00 | 0.00 | 0.00 | 55 | 1023.3 |
| 20260502214930 | 13 | 87 | 8.0 | 11.3 | 0.00 | 0.00 | 0.00 | 56 | 1023.5 |
| 20260502214429 | 13 | 88 | 8.0 | 12.9 | 0.00 | 0.00 | 0.00 | 56 | 1023.2 |
| 20260502213929 | 13 | 82 | 11.3 | 12.9 | 0.00 | 0.00 | 0.00 | 55 | 1023.4 |
| 20260502212928 | 13 | 96 | 9.7 | 11.3 | 0.00 | 0.00 | 0.00 | 55 | 1023.4 |
| 20260502212427 | 13 | 95 | 9.7 | 12.9 | 0.00 | 0.00 | 0.00 | 55 | 1023.5 |